GEFSMW_500_meanwind_234.txt.gz
Wind_Speed
15 15 16 16 16 17 18 19 19 18 18 19 20 21 22 23 23 23 24 25 25 26 26 27 27 26 26 26 27 28 27 27 27 27 27 27 27 28 28 28 28 28 29
15 15 16 17 17 18 18 18 18 18 18 19 20 21 22 22 22 23 23 23 24 24 25 25 25 26 25 25 26 26 25 25 26 25 25 26 26 27 27 27 28 28 29
15 15 15 17 17 17 17 18 18 18 19 20 20 20 20 21 22 22 22 22 22 23 24 24 24 24 24 24 25 25 24 24 24 24 25 24 24 25 26 27 29 29 30
14 15 16 17 17 17 18 19 20 19 20 20 20 19 19 20 21 22 22 22 23 23 23 23 22 22 23 24 23 23 24 24 24 24 25 25 26 26 25 26 28 29 30
16 17 18 18 18 19 20 21 21 20 20 19 19 19 20 21 22 22 22 22 23 23 23 23 22 22 22 22 22 23 23 25 25 24 25 26 27 27 27 26 27 29 29
17 19 20 20 20 20 22 22 22 21 20 20 20 20 20 21 22 22 22 22 23 23 23 23 23 22 22 22 23 24 24 25 25 25 26 27 28 28 27 27 27 28 28
19 19 20 21 21 22 22 22 22 21 21 21 21 20 20 21 22 22 22 22 23 23 23 24 24 24 24 24 24 24 25 24 25 26 27 28 28 28 28 27 27 26 26
18 19 19 20 21 22 22 22 21 21 21 20 20 21 22 22 23 22 22 22 22 23 23 23 24 25 25 25 25 24 25 26 26 26 27 28 28 28 27 27 27 27 27
18 19 19 20 21 21 21 20 20 20 20 20 21 21 21 21 21 21 21 21 21 22 22 22 23 24 24 24 25 26 26 26 26 27 27 27 27 27 27 27 27 27 27
18 19 19 20 20 20 19 18 19 19 19 19 20 21 22 22 22 21 21 21 22 22 22 21 21 22 23 24 25 26 26 26 25 26 26 26 26 26 26 26 27 27 26
18 19 19 20 19 18 17 18 19 20 20 20 20 21 21 21 21 21 21 21 22 22 22 21 21 22 24 24 25 25 25 25 25 26 25 24 23 23 23 24 24 25 25
19 19 20 20 18 18 18 18 19 19 20 20 20 20 20 21 21 20 21 21 21 21 21 22 22 23 24 24 24 24 25 25 25 24 24 23 22 22 22 22 23 23 23
19 20 20 19 18 17 17 18 19 20 20 20 21 20 20 20 20 20 20 21 20 20 21 22 22 23 24 23 23 23 23 23 24 24 23 21 21 21 21 21 22 22 23
19 19 20 19 18 17 17 18 19 20 20 20 20 19 19 19 19 20 21 20 20 21 22 22 22 22 23 22 22 22 23 23 23 23 22 21 21 21 21 21 22 22 22
18 20 20 19 18 17 18 19 20 20 19 19 18 19 19 18 19 20 20 20 20 21 21 22 22 22 22 23 23 23 23 23 22 22 22 21 21 21 20 20 20 20 21
19 19 19 19 18 18 19 19 19 19 19 19 19 19 18 18 19 19 19 20 21 22 22 23 23 23 23 23 23 22 22 21 21 21 21 21 20 19 19 19 19 19 19
19 19 19 19 19 19 19 19 19 20 20 19 19 19 19 19 20 20 20 21 21 22 22 22 22 22 22 22 22 21 21 21 21 21 20 19 18 18 17 18 18 18 18
19 19 19 20 19 19 19 19 19 20 20 20 19 19 20 20 20 20 21 21 21 21 21 21 21 21 22 22 21 21 21 20 20 20 19 18 17 17 17 17 17 18 18
19 19 20 20 19 19 19 19 20 20 20 20 19 19 19 20 20 20 20 20 20 20 19 19 20 20 21 20 20 20 21 20 20 19 19 18 16 17 17 16 16 16 17
19 19 20 20 19 19 19 19 20 21 20 20 19 19 19 19 18 18 19 19 19 19 19 19 19 19 19 19 19 19 20 20 20 19 18 18 17 17 17 16 15 15 15
19 19 19 20 20 20 20 20 20 20 19 19 19 19 18 18 18 18 17 18 19 18 18 18 18 18 18 19 19 19 20 20 20 19 18 18 17 17 16 17 16 16 15
19 19 20 20 20 20 20 19 19 19 19 19 18 18 18 17 17 17 17 18 18 17 17 17 18 17 18 19 19 20 20 20 20 19 18 18 17 17 16 17 17 16 16
19 19 19 19 20 20 20 19 19 18 17 17 17 17 17 16 16 17 17 18 17 17 17 17 17 17 18 19 20 20 21 21 20 19 18 17 17 16 16 16 16 16 15
19 19 19 19 20 20 19 19 18 17 16 16 17 17 17 16 16 17 17 17 16 16 16 16 17 18 18 19 19 20 21 21 21 20 19 18 17 17 17 17 16 16 16
20 19 19 19 19 19 19 19 18 16 16 15 16 16 17 17 16 16 17 16 15 15 15 16 17 18 19 19 19 20 21 22 22 21 20 20 19 18 17 17 17 17 16
21 20 19 19 19 20 19 18 17 16 15 15 16 16 16 16 16 17 16 15 14 14 14 15 17 18 19 19 19 20 21 22 22 21 21 20 19 18 17 17 17 17 17

GEFSMW_500_meanwind_240.txt.gz
Wind_Speed
16 16 16 16 16 17 17 18 18 19 19 19 19 20 19 20 20 20 21 22 22 22 23 23 24 24 24 23 23 23 23 24 25 25 25 26 27 27 26 26 27 27 28
15 15 15 15 15 16 17 17 17 17 19 19 19 19 19 19 19 19 20 21 21 21 23 23 24 24 24 23 23 23 23 23 24 24 25 25 25 26 26 27 27 28 29
14 14 14 14 15 16 17 17 17 18 19 19 19 19 19 19 19 20 20 19 20 21 22 23 23 23 24 24 24 23 24 24 24 24 25 25 24 25 26 27 28 28 28
14 13 13 14 15 16 16 16 17 18 18 17 18 19 18 18 19 20 19 19 20 21 22 22 23 23 23 24 24 24 23 24 24 24 24 25 25 25 25 26 27 28 28
13 13 13 14 15 16 16 16 17 18 17 17 17 18 18 19 19 19 20 20 21 21 23 23 24 24 24 24 23 23 23 24 24 24 25 25 26 26 26 26 26 27 27
13 14 14 14 15 16 16 17 18 18 17 17 17 18 18 18 19 19 20 20 21 22 23 23 23 23 23 23 22 23 24 24 24 25 25 25 25 26 26 26 26 27 27
14 14 15 16 16 17 17 17 17 18 17 17 17 17 18 19 19 19 20 20 21 22 23 22 21 21 22 23 23 23 23 23 23 23 24 23 24 24 25 26 26 27 27
14 15 16 17 17 17 16 16 17 18 17 17 17 17 18 18 18 19 20 20 20 21 21 21 20 21 22 22 23 23 23 24 24 23 23 23 22 23 23 25 26 26 26
15 15 16 17 17 17 16 16 17 17 17 17 17 17 18 19 19 20 20 20 20 20 20 20 21 21 21 22 23 23 23 24 24 23 23 23 23 23 24 25 25 26 27
16 16 17 18 17 16 17 17 17 17 18 18 19 19 19 19 19 20 19 19 19 19 20 20 21 21 22 22 23 23 23 23 23 23 23 23 24 24 25 25 25 26 27
17 18 18 18 17 17 17 18 17 18 19 19 20 20 19 19 20 19 19 19 19 19 20 20 20 20 21 22 22 22 22 22 22 22 21 21 22 22 23 23 24 24 25
17 18 18 17 17 17 17 17 17 18 19 19 19 19 19 19 19 19 19 19 20 20 20 20 20 21 21 22 22 22 21 21 21 21 20 21 21 21 21 22 22 22 22
18 18 18 17 17 18 18 18 18 17 18 18 19 19 18 19 19 19 19 19 19 20 20 20 20 21 21 21 22 22 21 20 19 19 20 20 20 20 20 21 21 21 22
18 18 17 16 17 17 17 17 17 18 18 18 18 19 18 19 19 19 19 19 19 19 19 20 20 21 21 22 22 22 21 20 19 19 20 21 21 20 20 20 20 19 20
17 17 17 16 16 16 16 16 17 18 18 18 18 18 18 19 19 19 18 19 19 19 19 20 20 21 21 21 21 21 21 21 20 21 21 21 21 21 21 20 20 19 19
17 17 17 16 16 16 16 16 17 17 17 18 18 18 17 18 18 18 18 18 19 19 19 19 18 19 20 20 20 21 21 20 20 20 20 20 21 21 19 19 19 19 19
16 17 16 16 17 16 16 16 17 17 17 18 18 17 17 17 18 18 18 18 18 17 17 17 17 18 18 19 19 19 19 19 19 19 20 21 20 19 18 18 18 18 18
16 16 16 16 16 16 16 16 17 17 17 17 17 17 17 18 18 17 17 17 17 17 16 16 16 17 18 18 19 19 18 18 18 19 19 20 20 19 18 18 18 18 18
17 17 16 16 16 16 16 16 17 17 17 17 17 17 18 18 18 18 18 17 17 16 16 16 16 17 17 18 19 18 18 18 18 18 18 19 20 19 18 18 18 17 18
17 17 16 16 16 16 17 17 17 17 17 17 17 17 17 17 17 17 17 16 15 14 14 15 15 17 17 18 19 18 17 18 18 18 19 19 19 18 17 17 17 16 16
17 17 16 16 16 17 17 17 17 17 17 17 17 17 17 17 16 16 15 15 15 14 14 15 15 17 17 18 18 17 17 17 17 18 18 19 18 17 17 17 17 16 15
17 17 16 16 16 17 17 17 17 18 18 17 17 16 16 15 15 15 15 15 15 15 15 15 16 17 17 18 17 17 17 18 18 18 18 19 19 18 16 16 15 16 15
17 17 17 17 17 17 17 18 18 18 17 17 16 15 15 14 15 15 15 15 15 15 15 15 16 17 17 18 17 18 18 18 18 18 19 18 18 19 17 15 15 16 16
17 17 18 18 18 18 18 18 18 17 17 16 15 14 14 14 15 15 16 16 16 16 15 16 17 17 17 17 18 18 18 18 18 18 19 19 19 18 17 16 16 16 16
18 18 18 18 17 17 18 17 17 17 16 15 15 14 14 15 15 16 17 16 16 16 16 16 16 17 17 17 18 18 18 18 19 19 19 19 18 17 16 16 17 17 16
19 19 19 18 18 18 18 17 17 16 15 15 14 14 14 15 16 16 17 16 16 15 15 15 16 16 17 18 18 18 18 19 19 19 19 18 18 17 16 16 17 17 17

GEFSMW_500_meanwind_246.txt.gz
Wind_Speed
17 16 16 16 16 17 18 18 20 21 20 20 20 20 19 19 20 21 20 21 21 21 21 21 22 22 23 22 23 23 23 23 23 23 23 23 24 24 24 25 25 25 26
17 17 17 16 17 17 18 19 20 19 19 19 19 19 19 20 20 19 20 21 21 22 22 22 22 22 22 23 23 23 24 23 23 23 23 22 22 23 24 25 26 26 27
17 17 17 17 17 18 19 19 19 18 18 19 20 19 18 19 20 19 19 20 21 22 22 22 21 21 22 22 23 23 23 23 23 24 24 23 23 23 24 25 26 26 27
16 16 16 16 17 18 19 20 18 18 19 19 19 18 19 19 19 18 19 20 20 20 20 20 20 21 21 22 23 23 24 24 24 24 23 24 24 25 25 24 25 26 27
16 16 16 16 17 18 19 18 17 18 18 18 18 19 19 20 19 18 19 19 18 19 19 20 20 21 22 22 23 22 22 22 23 23 23 24 25 25 26 25 25 26 27
17 16 16 16 17 17 17 17 17 18 18 18 18 19 19 19 18 18 19 18 19 19 19 19 20 21 22 22 22 22 22 22 23 24 23 23 24 24 26 26 26 26 26
16 15 15 16 16 17 17 17 17 18 19 18 18 18 19 19 19 18 19 19 19 19 19 19 20 21 21 21 22 22 23 22 23 23 23 24 24 24 25 26 25 25 25
15 16 16 16 17 17 17 16 16 18 18 18 18 18 19 20 19 19 19 19 19 19 19 19 20 21 21 22 21 22 22 22 22 23 24 24 25 25 26 26 26 26 25
17 16 16 17 17 17 17 17 17 17 18 19 20 19 19 19 18 19 18 18 18 18 18 19 20 20 21 21 21 22 22 22 22 22 23 24 25 25 26 27 27 26 26
17 17 17 17 17 18 18 18 18 19 20 19 20 19 19 19 19 18 18 18 18 18 19 19 20 20 21 21 21 22 22 22 22 23 23 24 25 26 26 27 26 26 26
17 17 17 17 17 18 18 18 18 19 20 20 19 19 20 20 19 19 19 19 19 19 19 19 19 20 20 20 21 21 22 22 23 23 23 24 25 25 25 25 24 24 25
17 17 17 17 18 18 18 18 18 19 19 20 19 20 20 20 20 20 19 19 19 19 19 19 19 19 19 20 20 21 21 22 22 23 23 23 23 23 24 24 23 23 24
18 17 18 18 18 18 18 18 19 19 19 20 20 20 20 20 20 20 19 19 19 20 20 20 19 19 20 20 20 20 21 22 23 23 23 23 23 23 24 23 23 23 22
18 18 18 18 18 18 19 19 19 20 20 21 20 20 20 20 21 20 19 19 20 20 20 19 19 19 20 20 21 21 22 23 23 23 23 24 24 23 23 22 21 21 21
18 18 18 18 18 19 19 19 19 20 20 21 20 20 20 20 20 20 19 19 20 20 20 19 19 19 20 20 21 22 22 23 23 23 23 23 23 22 22 21 20 20 20
19 19 19 18 18 19 19 18 19 20 20 20 20 20 20 20 20 19 19 19 19 19 19 19 19 20 20 21 22 22 22 22 23 23 23 22 22 21 21 20 20 19 18
19 20 19 19 19 19 19 19 20 20 20 21 20 20 20 19 19 19 18 18 19 19 19 20 20 20 20 21 21 21 21 21 21 21 21 21 21 21 20 19 19 18 18
19 19 20 19 19 20 20 20 21 20 21 21 20 20 19 19 19 19 18 18 18 19 20 20 20 20 20 20 20 19 19 19 20 20 20 20 21 20 19 18 18 18 17
19 20 20 20 20 20 21 21 21 21 21 20 20 20 20 19 18 18 18 18 19 20 20 20 20 20 19 18 18 18 19 19 20 21 20 20 20 20 19 18 18 17 17
20 20 21 21 21 21 21 21 20 20 20 20 19 19 19 18 18 18 18 19 19 20 20 20 20 19 18 18 18 18 19 20 21 21 21 21 21 20 19 18 18 17 17
21 20 20 21 21 21 21 20 20 20 20 20 19 19 19 18 18 18 19 19 19 20 20 19 18 18 18 19 19 19 20 21 21 22 21 21 21 20 20 19 18 18 18
22 21 21 20 21 21 21 20 20 20 20 20 19 19 18 18 18 19 19 20 20 20 20 19 19 18 18 18 19 19 20 21 22 22 22 22 21 21 20 19 18 18 17
21 21 21 21 20 21 21 21 21 20 20 20 19 19 19 19 19 19 20 20 20 19 20 20 19 19 19 19 20 20 21 21 22 22 22 22 21 20 19 18 17 17 17
22 22 22 21 21 21 21 21 21 21 20 19 19 19 18 19 19 19 20 19 19 19 19 19 19 20 20 20 20 20 20 21 20 20 21 21 20 19 18 18 17 17 17
23 22 22 22 22 21 21 21 20 20 20 19 19 18 19 19 20 20 20 19 19 19 19 20 20 20 20 20 20 20 20 20 20 20 20 20 21 20 19 18 17 17 17
23 23 23 23 22 22 22 21 21 20 20 20 20 20 20 20 20 20 20 19 18 18 18 19 20 20 21 20 20 20 20 20 20 20 20 20 20 20 19 18 18 18 18

GEFSMW_500_meanwind_252.txt.gz
Wind_Speed
14 13 13 14 15 15 15 15 15 15 16 17 18 17 16 16 16 16 15 14 14 15 16 17 17 18 19 19 19 19 19 19 19 20 21 21 21 21 21 21 22 23 23
13 14 13 14 15 15 16 16 16 15 15 15 16 16 15 15 16 15 14 13 13 14 16 18 18 18 19 19 18 18 19 20 20 20 21 21 21 22 22 22 22 23 24
13 14 14 14 15 15 15 15 16 17 16 16 16 16 16 15 15 14 14 13 13 14 15 17 16 17 18 17 17 18 19 19 20 20 21 21 21 21 22 23 23 24 24
13 13 13 14 14 15 15 15 15 15 16 16 16 16 16 16 15 14 13 13 13 14 15 15 16 16 17 17 17 18 18 19 19 19 19 20 21 22 22 22 24 25 26
13 13 13 14 14 14 15 14 15 15 15 15 16 15 15 14 14 13 13 13 14 14 15 15 14 14 15 16 17 17 18 19 19 19 20 20 21 22 23 23 24 25 26
13 13 13 13 14 13 13 13 14 14 14 15 15 14 15 14 14 13 13 13 13 14 14 14 13 13 14 15 16 18 19 20 20 20 21 22 22 23 23 24 24 24 25
13 13 13 13 13 12 12 13 14 15 15 15 15 15 14 14 14 13 13 14 14 13 13 12 13 13 14 15 16 18 19 19 20 20 21 22 23 24 24 24 24 24 25
12 12 12 13 12 12 12 14 14 15 16 16 16 15 14 14 13 13 13 13 13 13 13 13 13 14 14 15 16 18 18 19 20 20 21 22 22 23 23 24 24 24 24
12 12 12 12 11 12 13 14 14 16 16 16 16 16 14 13 13 13 14 14 14 14 14 13 14 15 16 17 17 18 19 19 19 20 20 21 21 22 23 23 24 24 24
12 12 12 12 12 13 13 14 14 15 16 16 16 16 15 14 13 14 14 15 15 14 14 14 15 16 17 18 19 19 20 20 20 20 21 21 21 22 22 23 23 23 23
13 13 13 12 13 14 14 14 14 15 16 16 16 16 15 15 15 15 15 15 15 15 14 16 17 18 18 19 20 20 20 20 21 22 22 22 22 22 22 23 23 23 23
13 14 14 14 14 15 15 14 14 15 15 16 16 16 17 16 16 16 15 15 15 15 15 16 17 18 19 20 20 20 20 20 21 21 21 22 22 22 22 22 23 23 24
14 14 14 14 15 15 15 15 15 15 15 16 17 17 17 17 16 16 16 16 16 16 16 16 17 18 18 19 20 20 20 21 21 22 22 22 22 21 21 22 22 22 23
15 14 14 14 15 15 15 15 16 16 16 17 17 18 18 17 16 16 16 16 16 17 17 17 17 18 18 19 19 20 20 20 20 21 21 21 21 21 22 22 22 22 22
15 15 15 15 16 15 15 15 16 17 17 18 18 19 19 18 17 17 17 17 17 17 17 18 18 18 19 19 20 21 21 20 20 20 20 20 21 21 21 21 21 21 21
16 17 16 16 16 16 16 16 17 17 18 18 19 20 20 19 18 18 18 18 18 18 18 18 19 19 19 20 20 21 20 20 20 21 21 21 21 21 21 21 21 20 20
17 18 17 16 16 17 17 17 17 18 18 19 20 20 19 19 19 19 18 18 17 17 18 19 19 19 19 19 20 20 21 20 20 21 21 21 21 21 20 20 20 20 18
19 19 18 17 17 18 18 18 18 18 19 19 19 19 19 19 19 18 18 17 17 18 18 19 18 19 19 19 20 20 20 20 20 20 20 20 19 19 19 18 18 18 17
19 18 18 19 18 18 18 19 19 19 19 19 19 20 19 19 18 18 18 18 18 18 19 19 19 19 19 19 19 19 19 19 20 20 20 19 19 19 18 17 17 16 16
18 18 18 19 19 19 18 18 19 19 18 18 19 19 19 19 19 18 18 18 18 18 19 19 19 19 19 19 19 19 19 19 19 20 19 19 18 18 18 17 16 15 15
18 18 18 18 18 18 18 19 19 19 19 19 19 19 19 19 19 19 19 19 19 19 19 19 19 19 19 19 19 18 18 19 19 19 18 18 19 18 18 16 16 15 15
18 18 18 18 18 18 19 19 19 20 20 19 19 19 18 19 19 20 19 19 19 19 19 19 18 18 19 19 18 18 18 19 19 18 18 18 18 18 17 16 16 16 15
17 17 18 19 19 19 19 19 19 19 19 19 19 18 19 19 19 19 19 19 19 19 19 18 18 19 19 18 18 18 19 19 19 18 18 18 18 17 17 16 16 16 17
18 18 19 19 20 20 20 20 19 19 19 19 19 19 20 20 19 19 19 19 19 19 19 18 18 19 18 19 19 19 19 19 18 18 18 18 18 18 17 17 17 17 17
20 20 20 19 19 20 20 20 19 19 19 19 19 19 20 20 20 20 20 20 20 19 18 18 18 18 19 19 19 18 18 18 18 18 18 19 19 18 18 18 17 17 17
21 21 21 20 20 20 20 20 19 19 19 20 20 21 21 22 21 21 21 20 20 19 18 18 19 19 19 19 19 18 17 18 17 17 17 17 18 18 17 17 17 17 17

GEFSMW_500_meanwind_258.txt.gz
Wind_Speed
11 11 11 11 12 13 13 13 14 13 13 13 13 15 15 15 15 15 15 15 16 16 17 17 17 18 19 19 19 19 20 21 21 22 22 22 23 23 23 22 22 22 24
10 10 11 11 11 12 12 13 13 13 14 13 13 14 14 15 14 13 13 13 13 14 15 16 17 17 17 17 17 18 20 21 21 22 22 23 23 23 23 23 22 22 23
10 10 11 12 12 12 13 12 12 13 12 12 12 12 13 13 13 12 12 13 13 13 14 15 15 15 16 16 16 18 19 20 21 21 21 22 22 22 22 23 23 23 23
10 10 11 12 12 12 12 11 11 12 12 11 11 12 12 12 12 11 12 13 13 13 13 14 14 14 15 15 15 16 18 18 19 19 20 21 22 22 22 22 22 23 23
10 10 11 12 12 11 11 11 11 11 11 11 12 12 12 12 11 11 11 12 13 13 13 13 14 15 15 15 16 17 17 18 18 19 20 21 21 22 22 22 22 23 23
10 10 10 11 11 10 11 11 10 11 11 11 12 13 13 12 12 11 11 12 13 13 13 13 14 15 15 15 17 17 17 18 19 20 21 21 21 21 22 22 23 24 24
11 10 10 11 10 10 10 10 11 11 11 12 13 12 12 12 12 12 12 12 12 13 14 14 15 15 16 16 17 17 18 19 20 21 21 21 22 22 22 23 23 24 24
11 11 11 11 11 11 11 10 10 11 11 11 12 12 12 12 12 12 12 12 12 13 14 15 15 15 16 16 16 17 18 19 19 19 20 21 21 21 22 23 23 23 23
11 11 11 11 11 11 11 10 11 11 11 11 11 12 12 12 13 13 13 13 14 14 15 15 16 16 16 16 17 17 19 20 20 20 20 20 20 21 21 23 23 23 24
11 11 12 11 11 11 11 11 11 11 11 11 12 13 13 13 13 14 15 15 16 17 17 16 17 17 17 18 18 19 20 21 21 20 20 20 21 21 23 23 24 24 25
12 12 12 12 12 11 11 11 11 11 11 12 13 13 13 13 14 15 15 15 17 17 17 16 17 18 18 19 20 20 21 21 21 20 20 21 22 22 23 23 24 24 24
14 13 13 13 13 12 12 12 12 12 12 13 13 14 15 15 15 16 16 16 17 16 16 16 17 17 18 19 20 21 20 20 20 20 21 22 23 23 24 23 24 24 24
15 15 15 15 15 14 13 13 13 12 13 14 15 16 16 17 17 17 17 17 17 17 17 17 17 18 18 19 20 20 20 20 21 21 22 22 23 23 24 24 25 25 25
15 15 15 16 15 14 14 14 14 14 15 15 16 17 18 18 18 18 18 18 18 18 18 18 18 19 19 19 20 21 21 21 21 21 22 22 22 23 23 24 24 24 25
15 16 16 16 16 16 15 15 15 15 16 17 17 18 19 18 19 19 19 19 19 18 18 19 19 19 20 21 21 21 21 21 22 22 22 23 23 23 23 23 23 23 23
17 17 17 17 18 18 18 17 17 17 17 18 18 19 19 19 19 19 19 19 18 18 19 19 20 20 21 21 21 22 22 22 22 22 23 23 23 22 22 22 22 23 23
17 18 18 18 19 20 20 19 19 18 18 18 18 19 19 19 19 18 18 18 18 19 20 20 21 21 21 21 22 21 22 22 22 22 22 22 22 22 22 22 22 22 22
17 17 17 17 18 19 19 18 18 18 19 19 19 20 19 18 17 17 17 18 19 19 20 20 20 20 20 20 20 21 21 22 22 22 22 22 22 21 22 22 21 21 20
16 16 17 17 17 16 16 16 17 19 19 20 20 19 19 19 18 17 18 18 19 20 20 20 20 20 20 20 20 21 21 21 21 21 21 21 21 21 21 20 20 19 19
17 17 17 17 17 17 17 17 18 20 20 19 19 19 19 19 19 19 20 19 20 20 20 20 20 20 21 20 20 21 21 21 21 21 20 20 20 20 20 20 19 18 18
18 18 18 18 17 18 18 17 18 18 18 18 19 19 19 19 19 20 20 20 20 19 20 19 20 20 21 20 20 21 21 21 20 20 19 19 19 20 20 20 19 18 17
17 17 18 18 18 18 18 18 17 17 17 18 18 18 19 19 19 19 19 20 19 20 20 20 21 21 21 21 21 21 21 20 20 20 20 20 20 20 20 19 18 18 17
17 18 17 17 18 18 17 18 18 18 18 18 17 17 18 18 19 19 20 20 20 20 21 21 21 21 22 21 21 21 21 21 21 20 20 20 20 20 19 18 17 17 17
18 18 18 17 18 18 19 19 19 18 17 17 18 18 19 20 20 20 20 20 20 20 21 22 21 22 21 21 20 21 21 21 20 21 21 20 20 19 18 17 17 17 17
18 19 19 19 19 19 19 19 19 19 19 19 20 21 21 21 20 21 21 20 21 21 22 22 22 22 22 21 21 21 21 20 20 20 20 19 19 18 18 18 17 17 16
20 20 20 19 19 19 20 20 20 20 19 20 20 21 22 21 21 21 21 22 22 22 22 22 22 22 21 21 21 21 20 20 19 19 20 20 19 18 18 18 17 17 16

GEFSMW_500_meanwind_264.txt.gz
Wind_Speed
12 12 12 11 10 10 10 10 11 11 11 11 11 11 11 12 12 13 13 14 13 14 14 15 16 17 17 17 18 19 19 19 19 20 20 21 21 21 22 22 21 21 22
12 11 10 9 9 9 10 10 10 10 11 11 10 11 12 12 12 12 12 12 13 13 14 14 15 15 16 17 18 17 18 18 19 19 19 19 20 20 20 20 20 21 22
10 10 10 9 9 9 9 9 10 10 10 11 11 11 11 11 11 11 12 12 12 13 14 13 13 14 15 16 16 17 18 18 18 17 17 18 19 19 20 21 21 21 22
10 10 9 9 9 9 9 9 10 10 10 11 10 10 10 10 9 10 11 11 12 13 13 13 13 14 14 14 15 16 16 17 17 17 17 18 19 20 20 21 21 22 22
10 10 9 9 9 9 10 10 10 10 10 9 9 10 10 10 10 10 11 11 12 12 13 13 13 13 14 15 15 16 16 16 16 17 18 18 19 20 21 21 20 21 22
9 9 9 8 8 9 9 10 10 10 10 9 9 9 9 10 11 11 11 12 12 12 13 13 13 14 15 15 15 15 16 16 16 17 18 18 19 19 20 20 20 21 22
10 10 10 9 9 9 9 9 10 10 10 10 10 10 10 11 12 12 11 11 12 13 13 13 15 15 15 14 15 15 16 16 17 18 18 19 19 19 19 20 20 21 22
11 10 10 11 10 10 9 9 10 9 9 9 10 10 11 11 11 11 12 12 13 13 14 14 14 15 14 14 14 15 16 17 17 17 18 19 19 19 19 20 20 21 21
11 11 11 11 11 11 11 11 11 11 11 10 10 11 11 12 12 12 12 12 13 14 14 14 15 15 14 14 15 15 16 16 17 17 18 19 18 19 20 21 21 21 22
12 12 12 11 11 12 12 12 12 12 12 11 11 11 11 11 11 11 12 13 14 14 15 15 15 15 15 15 16 16 17 17 18 18 18 19 19 20 21 21 22 22 23
13 13 12 12 12 13 13 13 13 13 13 12 12 12 12 12 12 12 13 14 14 15 15 15 15 15 15 15 16 17 18 18 19 19 19 19 20 21 22 22 22 24 24
14 13 13 12 13 13 14 14 14 14 14 14 13 13 13 13 13 13 14 15 15 15 16 16 16 16 16 16 17 17 18 18 18 18 19 19 20 21 22 23 23 24 25
14 14 13 13 13 14 14 15 15 15 14 14 15 15 14 15 15 15 15 16 16 17 17 17 17 17 16 17 17 17 18 18 18 18 19 19 20 21 22 22 23 23 24
15 15 14 14 14 15 15 16 16 16 16 16 16 16 15 16 16 16 16 17 17 17 17 17 17 17 17 17 17 17 18 18 19 19 20 20 21 21 22 22 22 23 24
16 15 15 15 15 15 16 16 17 17 18 18 17 17 17 16 16 16 16 16 17 17 18 18 18 17 17 17 18 19 19 19 20 20 20 21 22 22 21 21 22 22 23
16 16 16 16 17 16 16 17 18 19 19 19 18 16 16 16 16 16 17 17 18 18 18 19 19 18 18 19 19 19 19 19 20 21 22 22 22 22 21 21 21 22 22
17 17 17 17 17 17 17 18 19 19 19 19 18 17 16 17 17 17 18 19 19 19 19 19 19 19 19 19 19 19 20 20 21 22 23 23 23 22 22 21 20 20 20
17 17 17 18 18 17 18 18 19 19 18 18 19 18 18 18 18 18 19 19 20 20 20 20 19 19 19 20 19 19 20 20 21 22 22 22 22 21 20 20 19 19 19
17 17 18 18 18 18 18 18 17 17 17 17 18 18 19 19 19 20 20 20 21 21 20 20 20 20 20 20 20 20 20 20 21 21 21 21 21 21 20 19 20 20 20
18 17 17 18 18 17 17 17 16 16 17 17 17 18 18 19 21 21 22 22 22 21 21 21 21 21 21 21 21 21 21 21 21 21 21 21 21 21 20 20 20 19 19
18 18 18 18 19 18 18 18 18 18 18 18 18 18 19 20 20 21 22 22 22 22 22 22 21 22 22 21 22 22 22 21 21 21 22 22 21 20 19 20 20 20 19
19 18 18 18 18 18 18 18 18 19 18 18 19 19 19 19 20 21 22 22 22 22 22 21 21 21 22 22 22 22 22 22 22 22 22 22 22 21 20 20 20 19 19
19 19 19 18 17 18 18 18 19 19 18 18 19 19 19 19 20 20 20 21 21 20 20 20 20 20 21 21 22 22 22 23 23 23 22 21 22 22 21 21 20 20 20
20 20 19 18 18 17 17 18 18 19 18 19 19 19 19 20 20 19 20 20 20 19 19 19 19 19 20 21 22 22 22 22 22 22 22 22 22 22 21 20 20 20 19
19 19 19 18 18 18 18 18 19 18 18 19 18 18 19 20 19 19 19 19 19 19 19 19 19 20 21 21 22 22 23 22 22 22 22 22 22 22 21 20 20 20 20
19 19 19 19 18 18 18 18 18 19 18 19 19 19 19 19 19 19 18 19 19 19 20 20 20 21 21 22 22 23 23 23 23 22 22 22 22 21 20 20 19 19 19

GEFSMW_500_meanwind_270.txt.gz
Wind_Speed
15 16 17 15 14 13 13 13 14 14 14 13 13 13 13 13 12 12 12 13 13 13 14 15 15 16 16 16 16 17 17 18 19 19 19 19 20 19 20 20 21 22 22
16 17 16 15 14 13 13 13 13 14 14 13 13 13 13 13 12 12 12 13 13 13 14 15 15 16 17 17 17 17 17 17 18 18 18 19 20 19 19 20 21 21 21
15 16 15 14 13 13 13 13 13 13 13 13 13 13 13 12 13 13 13 13 13 14 15 16 15 16 17 17 17 17 17 17 17 18 18 18 19 19 20 20 19 20 20
15 15 14 13 12 11 12 13 13 13 12 12 12 13 12 13 13 13 13 13 14 15 16 16 15 16 15 16 16 17 17 18 18 18 18 19 18 19 18 19 19 20 20
15 14 13 13 11 11 11 12 12 12 11 11 11 12 12 12 12 13 13 14 15 15 15 15 15 15 15 16 17 17 18 18 18 18 17 17 17 17 17 17 19 19 19
14 14 13 13 12 12 11 11 11 11 11 11 12 12 13 13 13 14 14 14 15 15 15 15 15 16 16 17 17 17 17 17 17 17 17 17 18 18 18 17 18 18 18
14 15 15 14 14 14 12 11 11 11 12 12 13 13 14 14 14 15 15 15 15 16 16 16 16 16 16 16 17 17 17 17 17 17 17 17 18 18 18 18 19 19 19
15 15 14 14 14 14 13 12 12 12 12 12 13 13 14 15 15 15 15 15 16 16 16 16 16 17 16 17 17 18 18 17 17 17 16 17 18 18 19 19 19 19 20
15 15 14 13 14 14 14 13 13 13 12 13 13 14 14 15 15 15 15 15 16 16 16 17 17 17 17 17 17 17 17 17 17 18 18 18 18 19 19 20 20 21 21
15 15 15 14 13 13 14 14 14 14 13 13 14 15 15 16 16 16 16 15 16 16 16 16 16 16 17 17 16 16 16 17 17 18 19 19 19 19 19 20 21 22 23
15 15 14 14 14 14 14 14 14 14 15 15 15 15 16 16 16 16 16 16 16 16 16 16 16 16 16 17 17 17 17 17 18 18 18 18 17 18 18 19 21 22 23
16 15 15 15 15 14 14 14 15 15 16 16 16 16 16 16 16 16 17 17 16 16 16 16 16 16 17 17 18 18 17 17 16 17 17 16 17 18 19 20 21 22 23
16 16 16 16 15 15 15 15 16 16 16 17 17 17 17 17 17 17 17 16 16 17 17 17 17 17 17 18 17 17 17 18 18 18 18 17 18 18 19 20 20 21 22
16 16 16 16 16 15 15 15 16 16 17 17 18 18 18 18 18 18 17 18 18 19 19 18 17 17 17 17 17 17 19 19 19 20 20 19 19 19 20 21 21 22 22
17 17 17 17 16 15 15 16 16 17 18 19 19 19 20 19 19 18 18 19 19 19 19 18 18 18 18 18 18 18 20 20 21 20 20 20 20 20 21 21 22 22 22
18 18 18 16 15 15 16 16 17 18 19 19 19 20 20 20 19 19 19 19 19 19 19 19 19 19 19 18 19 19 20 21 21 21 21 21 21 22 21 22 22 21 21
18 18 18 17 16 17 17 18 18 19 19 20 20 20 20 20 20 19 19 19 19 19 19 20 20 20 19 20 19 21 21 22 22 22 21 21 22 22 22 22 22 21 21
19 19 19 18 18 18 19 19 20 20 21 20 20 20 20 20 20 19 19 20 20 20 20 20 21 20 21 20 21 21 22 23 23 22 23 23 23 24 23 22 22 21 21
19 19 19 20 20 20 20 20 20 21 21 21 20 20 20 20 19 19 20 20 21 21 21 22 21 21 21 21 22 22 23 23 24 24 24 24 24 24 23 23 22 22 22
20 20 20 21 21 21 20 20 20 20 20 20 19 19 19 19 19 19 20 20 21 21 22 22 22 22 22 23 23 23 23 24 24 25 25 25 25 25 24 23 22 22 22
20 20 20 20 20 20 20 20 20 19 19 19 19 19 19 20 20 20 21 21 21 21 22 22 22 22 22 23 23 23 24 24 25 25 25 24 24 24 23 23 22 22 21
20 20 20 19 20 20 19 20 19 19 19 19 19 19 19 20 21 21 21 21 21 22 22 23 23 22 22 23 23 23 23 24 24 24 24 23 23 23 23 22 22 22 22
21 21 20 20 20 20 20 20 19 19 19 19 20 20 20 21 20 20 20 21 22 22 22 22 22 22 22 23 23 24 24 24 24 23 23 23 24 23 23 23 23 22 22
22 21 21 20 20 21 21 20 20 19 20 21 21 20 20 20 21 21 22 22 22 22 23 23 23 23 23 23 23 23 24 24 24 24 23 24 24 23 23 23 23 22 22
22 22 22 22 22 22 22 21 21 21 22 22 22 21 21 21 21 22 22 22 22 23 23 23 24 24 24 24 24 25 25 24 24 24 24 24 23 23 23 23 23 23 22
23 23 23 23 23 23 22 22 22 23 22 22 22 22 22 22 21 22 22 23 23 23 23 24 24 24 24 25 25 25 24 24 24 24 24 24 23 23 23 22 23 23 23